RH
12 11 11 12 12 12 12 12 11 11 11 10 10 12 13 15 17 17 18 14 10 8 8 7 7 7 7 8 10 11 11 11 11 12 13 13 14 15 17 19 19 20 21 20 21 21 22
12 12 12 12 11 11 11 11 12 11 11 11 12 13 14 15 17 18 19 17 13 8 7 8 7 8 9 9 12 11 10 10 11 13 14 15 15 15 16 19 18 20 20 19 19 19 21
16 15 14 13 13 13 13 12 11 10 11 11 12 13 14 15 16 18 19 18 15 11 8 8 8 8 9 13 13 12 12 12 13 14 14 14 14 14 14 17 19 18 16 16 18 19 20
17 14 14 15 15 15 13 11 11 11 11 12 12 14 15 16 16 17 19 19 18 15 11 8 8 9 11 12 12 12 13 13 14 14 14 13 14 14 14 16 15 16 16 15 18 20 21
22 21 20 18 17 17 14 13 13 12 12 12 13 15 16 16 16 17 19 19 18 17 14 11 10 10 13 12 12 13 13 13 13 13 14 14 14 16 15 14 14 16 14 17 17 21 22
19 20 20 20 20 20 16 16 15 13 13 13 14 16 16 16 16 18 20 20 19 18 16 14 11 11 13 13 13 13 12 13 13 14 16 16 16 17 18 14 14 13 18 19 18 20 24
22 20 19 18 17 17 16 16 15 13 14 14 15 17 17 17 17 18 20 20 19 17 16 16 15 13 13 14 14 15 15 15 14 14 17 18 17 17 16 16 14 17 20 21 21 20 21
23 21 20 19 18 16 15 15 14 14 14 15 16 18 18 17 18 19 20 20 19 17 18 18 17 15 15 16 15 15 16 16 17 19 18 18 18 18 21 22 21 21 22 21 19 19 20
26 25 23 21 19 18 17 17 16 15 14 15 16 17 18 18 19 19 21 20 17 16 16 19 18 16 16 15 16 16 16 17 18 20 20 17 19 22 22 23 23 22 23 21 20 23 25
41 30 27 24 23 22 20 18 17 17 16 16 17 16 16 17 18 19 20 19 16 15 16 17 19 18 17 18 19 18 17 18 20 19 21 21 21 23 23 23 22 22 22 24 26 28 28
68 62 45 31 27 24 23 22 21 19 17 16 15 15 15 16 18 20 22 20 19 18 28 21 23 21 18 19 20 21 20 19 21 23 20 19 24 25 25 25 26 24 27 28 30 33 36
82 75 67 58 42 33 28 25 23 22 21 20 19 18 17 17 18 20 22 22 23 30 27 23 23 22 20 20 22 22 22 21 21 23 25 26 27 28 29 31 32 32 34 35 41 41 52
89 85 79 73 66 57 42 35 31 29 26 24 23 22 21 20 20 21 21 23 30 38 27 30 31 29 27 26 25 25 26 27 27 27 28 29 33 37 38 39 38 39 38 44 42 54 44
91 90 87 84 78 72 64 57 47 38 35 33 31 29 27 25 25 25 25 26 28 30 30 36 35 35 35 33 34 35 37 38 39 36 38 40 41 42 40 43 42 46 44 47 40 44 38
96 95 94 91 88 85 77 72 65 58 52 45 39 36 35 33 32 30 30 37 35 32 34 36 36 36 34 37 36 37 39 42 43 43 38 41 35 38 39 42 44 45 55 51 54 57 63
99 98 96 95 91 88 87 83 76 70 62 57 54 51 46 41 39 37 38 40 38 43 43 41 38 39 38 39 39 40 39 43 46 45 44 42 39 39 43 42 45 51 53 59 60 62 55
99 99 98 96 96 92 89 89 85 79 70 63 61 60 60 59 55 51 48 45 47 50 51 48 45 44 44 43 46 45 44 48 48 47 45 45 43 40 42 47 51 56 59 59 60 67 68
98 99 99 99 98 97 96 93 92 86 79 72 66 62 63 63 61 61 59 59 61 59 58 57 55 53 52 52 53 52 50 49 49 47 46 48 49 50 48 53 56 55 56 60 63 58 56
96 97 99 97 99 99 98 97 95 89 84 76 70 66 65 66 64 64 65 63 62 63 62 60 60 60 59 57 54 54 54 54 52 52 51 51 56 64 64 60 59 55 52 48 44 41 43
93 96 97 97 98 98 96 97 96 96 89 80 72 67 65 66 68 67 66 63 64 62 60 60 59 58 56 56 56 53 56 54 50 51 60 60 63 65 71 70 59 52 46 38 38 46 25
64 87 93 98 95 96 92 92 95 96 83 79 73 69 70 68 67 69 67 63 65 65 62 62 59 59 57 56 57 57 59 56 57 63 68 68 68 63 60 55 49 45 37 32 30 23 29
37 47 58 82 92 92 87 96 93 94 82 80 79 76 69 68 68 70 68 67 66 63 57 55 54 50 52 53 53 52 58 59 65 72 69 66 63 59 54 49 45 40 31 28 24 24 27
27 35 42 47 69 81 97 89 93 87 81 75 76 72 74 74 74 70 69 65 58 53 54 52 51 52 53 51 50 57 69 72 71 63 63 63 59 55 47 47 41 35 36 36 34 35 37
32 26 31 37 52 74 81 88 81 81 84 80 82 80 82 76 78 75 66 62 57 53 50 48 50 52 55 56 62 70 67 63 61 63 60 54 50 51 54 46 44 40 39 36 39 41 43
28 26 25 37 49 59 74 82 91 82 90 79 84 81 78 67 62 62 59 56 52 57 58 59 61 60 63 69 65 60 59 59 63 57 55 50 47 45 49 52 34 41 40 40 41 43 47
26 25 20 28 47 52 66 90 85 91 82 89 85 77 71 65 61 59 60 63 62 67 72 64 65 71 69 63 66 59 55 58 56 58 52 45 45 40 45 47 44 37 41 46 53 56 50
25 23 22 17 43 49 67 86 84 95 91 80 80 78 69 65 70 70 63 62 63 67 70 73 78 80 74 66 60 63 58 51 46 50 55 51 48 47 46 54 48 49 54 57 58 52 57
18 18 17 12 25 50 73 74 79 91 92 79 81 77 68 72 75 68 64 64 69 66 58 68 73 70 68 66 61 63 57 53 50 46 45 45 47 51 54 60 59 51 47 55 58 60 59
17 16 15 19 34 58 60 60 74 90 90 84 81 84 72 60 71 67 64 63 63 60 72 72 66 73 67 63 60 58 54 51 47 48 38 39 37 41 41 44 44 52 61 59 56 57 58